Location: CNYAC Observatory
(43.2150°N, 74.9500°W)
Time: 00:54:48
(UTC-04:00)

Daily predictions for brighter satellites

Satellite Brightness Start Highest point End
(mag) Time Altitude Azimuth Time Altitude Azimuth Time Altitude Azimuth
SL-16 R/B 4.2 02:56:28 28° NNE 02:56:28 28° NNE 02:59:33 10° N
Resurs 1-4 Rocket 4.5 02:52:27 10° NE 02:54:18 19° NE 02:54:18 19° NE
SL-16 R/B 4.4 02:53:52 10° N 02:58:08 21° NE 03:02:23 10° E
Cosmos 2227 Rocket 4.1 03:11:34 26° ENE 03:11:34 26° ENE 03:14:19 10° NE
ATLAS 2AS CENTAUR R/B 4.1 03:15:25 33° NNW 03:15:25 33° NNW 03:21:39 10° NNE
Cosmos 2297 Rocket 3.9 03:19:29 28° ENE 03:19:29 28° ENE 03:22:46 10° NE
Cosmos 2344 3.7 03:27:45 75° NNE 03:27:45 75° NNE 03:35:46 10° NE
Lacrosse 5 3.9 03:33:01 25° NE 03:33:01 25° NE 03:35:09 10° NE
BREEZE-M DEB (TANK) 4.0 03:37:52 68° ENE 03:37:52 68° ENE 03:49:05 10° ESE
Cosmos 2082 4.5 03:53:57 47° NNE 03:53:57 47° NNE 03:57:55 10° NNE
USA 215 3.2 03:55:38 10° SE 04:01:22 71° SE 04:01:22 71° SE
CENTAUR R/B 3.7 03:56:14 10° NNW 04:03:46 54° NE 04:11:52 10° ESE
Cosmos 1727 Rocket 4.0 04:04:16 79° ENE 04:04:16 79° ENE 04:10:27 10° N
CZ-2C R/B 4.5 04:18:11 40° ESE 04:19:21 51° ENE 04:23:53 10° N
CZ-4B R/B 4.1 04:18:00 10° NNE 04:23:13 44° E 04:26:34 21° SSE
CZ-2D R/B 3.1 04:19:58 10° N 04:23:15 35° NNW 04:23:15 35° NNW
Cosmos 1898 Rocket 3.8 04:29:39 55° SSE 04:30:32 65° ESE 04:35:47 10° NNE
IRS-1C Rocket 4.4 04:25:29 10° NNE 04:30:45 65° ESE 04:32:18 44° SSE
Cosmos 1153 Rocket 4.4 04:27:14 10° NNW 04:33:34 69° W 04:34:27 61° SW
Resurs 1-4 Rocket 3.2 04:32:00 10° N 04:35:23 32° NNW 04:35:23 32° NNW
SL-16 R/B 4.3 04:41:34 16° NW 04:41:34 16° NW 04:42:59 10° NNW
Lacrosse 5 rocket 3.8 04:37:13 15° NNW 04:37:33 15° N 04:40:14 10° NNE
Cosmos 724 4.3 04:36:28 55° WNW 04:37:43 69° WSW 04:43:53 10° SSE
Cosmos 1339 Rocket 4.4 04:37:17 61° SW 04:38:09 68° W 04:44:35 10° N
Cosmos 1937 Rocket 4.1 04:36:06 33° SSE 04:38:13 54° ESE 04:43:23 10° NNE
Meteor 2-4 Rocket 3.7 04:38:08 52° SSW 04:39:40 87° W 04:45:39 10° N
Meteor 1-19 Rocket 4.2 04:40:30 63° WNW 04:40:30 63° WNW 04:45:54 10° N
SL-16 R/B 2.0 04:37:10 10° NNW 04:42:50 69° WSW 04:48:26 10° SSE
Cosmos 2098 Rocket 4.2 04:39:26 10° N 04:43:28 47° E 04:48:34 10° SSE
NOSS 3-4 (A) 4.0 04:43:54 40° WNW 04:44:37 41° NW 04:50:51 10° NNE
NOSS 3-4 (C) 4.0 04:43:59 40° WNW 04:44:43 41° NW 04:50:58 10° NNE
Meteor 2-9 Rocket 4.1 04:39:58 10° NNW 04:45:40 82° W 04:51:29 10° S
DELTA 2 R/B (1) 3.7 04:46:14 55° SSW 04:46:47 58° S 04:52:15 10° E
Okean O Rocket 1.4 04:45:56 10° N 04:50:20 82° WNW 04:50:21 82° WNW
ARIANE 5 R/B 4.2 04:47:02 10° NNW 04:49:14 20° NNW 04:49:14 20° NNW
BREEZE-M DEB (TANK) 2.7 04:53:01 84° SE 04:53:01 84° SE 04:55:36 10° ENE
Cosmos 2227 Rocket 3.0 04:53:25 33° NW 04:53:25 33° NW 04:58:17 10° N
Meteor 1-23 Rocket 4.1 04:52:38 45° SSW 04:54:24 73° W 05:00:09 10° N
PSLV R/B 4.3 04:55:59 10° NNE 05:00:12 50° E 05:04:21 10° S
Cosmos 1892 Rocket 3.6 05:01:48 57° WNW 05:01:48 57° WNW 05:06:07 10° N
Cosmos 2297 Rocket 2.7 05:01:19 38° WNW 05:01:42 38° WNW 05:06:58 10° N
CZ-4B R/B 3.0 04:58:38 10° N 05:03:06 81° WNW 05:04:41 41° SSW
Cosmos 2228 2.9 04:58:50 10° N 05:03:15 87° W 05:07:36 10° S
Cosmos 192 4.3 05:01:25 10° NNW 05:06:24 84° ENE 05:11:19 10° SSE
Lacrosse 5 3.1 05:12:13 24° NW 05:13:32 27° NNW 05:17:52 10° NE
Cosmos 2100 Rocket 4.1 05:07:55 10° NNW 05:13:58 53° W 05:20:04 10° SSW
Okean 2 3.9 05:16:05 39° WNW 05:16:05 39° WNW 05:19:36 10° N
Cosmos 1802 Rocket 3.9 05:13:11 10° NNW 05:19:14 60° W 05:25:14 10° S
Cosmos 1812 Rocket 4.1 05:17:50 10° N 05:22:16 63° E 05:26:42 10° SSE
Cosmos 1943 4.3 05:17:21 10° NNW 05:22:44 45° ENE 05:28:06 10° SE
Cosmos 2061 Rocket 4.1 05:16:56 10° NNW 05:23:01 51° W 05:29:09 10° SSW
Cosmos 1725 Rocket 4.0 05:17:40 10° N 05:24:01 85° E 05:30:16 10° S
Cosmos 1346 Rocket 4.2 05:27:35 22° NW 05:27:35 22° NW 05:29:59 10° NNW
ADEOS II 2.1 05:21:48 10° NNE 05:27:06 84° ESE 05:32:21 10° SSW
CZ-4B DEB 4.3 05:24:06 10° N 05:29:26 55° WNW 05:34:08 14° SW
Cosmos 1603 3.6 05:25:01 10° NNW 05:30:44 75° WSW 05:36:23 10° SSE
Cosmos 2263 Rocket 4.1 05:28:21 10° SSE 05:33:07 30° ESE 05:37:54 10° NE
SOZ 4.5 05:33:39 27° NW 05:34:39 49° NNE 05:36:51 10° ESE
Cosmos 990 Rocket 4.0 05:30:49 15° SSW 05:35:06 65° WNW 05:40:21 10° NNE
AVUM R/B 3.4 05:35:54 10° NNW 05:38:12 46° ENE 05:40:22 10° SE
ADEOS Rocket 3.3 05:35:28 10° N 05:42:22 58° WNW 05:48:33 10° SSW
Genesis I 3.3 05:40:15 24° SW 05:42:30 60° NW 05:46:28 10° NNE
Cosmos 2016 Rocket 4.2 05:37:48 10° NNW 05:43:48 47° W 05:49:44 10° SSW
USA 215 4.3 05:40:44 10° S 05:45:46 23° SW 05:48:46 17° W
Cosmos 2058 Rocket 4.3 05:43:09 10° NW 05:46:14 21° W 05:46:14 21° W
USA 116 4.2 05:42:32 10° S 05:47:24 57° W 05:51:46 10° NNW
Cosmos 1269 Rocket 4.2 05:45:45 10° NNW 05:51:04 80° ENE 05:56:21 10° SSE
EXPRESS MD2 4.3 05:51:19 21° W 05:53:16 37° SSW 05:59:02 10° SSE
Cosmos 1174 4.2 05:52:40 23° W 05:53:29 26° WSW 05:56:21 10° S
Cosmos 1766 4.4 05:50:05 10° N 05:54:00 48° ENE 05:57:50 10° SSE
Thor Agena Rocket 4.1 05:49:21 10° SSW 05:54:12 36° W 05:59:04 10° NNW
Tiangong 1 1.3 05:52:48 25° W 05:54:14 48° SSW 05:57:10 10° ESE
CENTAUR R/B 3.4 05:47:10 10° NW 05:54:31 44° WSW 06:02:15 10° S
Cosmos 1515 4.0 05:51:37 10° SSW 05:55:15 42° WNW 05:58:55 10° N
COSMO-SKYMED 1 3.4 05:52:58 10° SSE 05:57:12 56° ENE 06:01:29 10° N
Cosmos 1825 Rocket 4.0 05:53:01 10° S 05:57:21 65° E 06:01:41 10° NNE
Meteor 1-31 Rocket 2.7 05:54:46 10° N 05:58:42 80° WNW 06:02:38 10° SSW
Okean-O 2.9 05:56:49 10° N 06:01:04 46° WNW 06:05:17 10° SW
Cosmos 1340 2.6 05:58:15 10° SSW 06:02:02 72° W 06:05:51 10° N
CZ-4B R/B 4.1 05:59:03 10° N 06:03:33 27° WNW 06:08:06 10° WSW
Cosmos 2123 Rocket 4.2 06:00:01 10° SSW 06:05:56 48° WNW 06:11:55 10° N
NOSS 2-2 (D) 4.3 06:04:35 14° WSW 06:07:57 39° NW 06:12:37 10° NNE
Meteor PRIRODA 4.3 06:05:44 10° N 06:09:09 35° WNW 06:12:33 10° SW
Cosmos 1626 Rocket 4.4 06:07:00 10° SW 06:10:49 29° WNW 06:14:38 10° NNW
Lacrosse 5 rocket 3.9 06:15:45 10° NNW 06:18:26 15° NNE 06:21:02 10° NE
Cosmos 1125 Rocket 3.5 06:13:59 10° SSW 06:19:08 66° WNW 06:24:21 10° NNE
BREEZE M DEB (TANK) 4.4 06:16:35 10° WNW 06:20:40 51° NNE 06:35:29 10° E
Radarsat Rocket 4.2 06:14:13 10° NNE 06:20:54 89° ESE 06:26:54 10° SSW
CZ-4B R/B 4.3 06:23:56 10° N 06:27:32 37° WNW 06:30:59 10° SW
Cosmos 1842 3.3 06:25:37 10° S 06:29:30 85° E 06:33:24 10° N
Cosmos 1953 Rocket 3.6 06:26:21 10° SSW 06:30:49 75° W 06:35:19 10° N
